#timestamp,LO_Frequency,Hit,StdDev 
1553490015.2,286047001.1,N
1553490035.0,286046998.8,N
1553490035.9,286046998.8,N
1553490055.8,286046996.9,N
1553490075.6,286046999.2,N
1553490095.5,286046997.3,N
1553490115.3,286046997.8,N
1553490135.1,286046999.6,N
1553490155.9,286046998.7,N
1553490175.7,286046997.0,N
1553490195.5,286046996.0,N
1553490215.4,286046994.3,N
1553490235.2,286046994.4,N
1553490255.1,286046994.5,N
1553490256.0,286046994.5,N
1553490275.8,286046994.3,N
1553490295.6,286046994.3,Y
1553490315.5,286046996.9,P
1553490335.3,286046999.5,P
1553490355.2,286046998.2,N
1553490375.9,286047001.1,N
1553490395.7,286047000.9,N
1553490415.6,286046999.9,N
1553490435.4,286046998.5,N
1553490455.2,286046998.7,N
1553490475.1,286046998.6,N
1553490476.0,286046998.6,N
1553490495.8,286047002.8,N
1553490515.7,286047000.5,N
1553490535.5,286046996.5,N
1553490555.3,286046999.2,N
1553490575.2,286046998.5,N
1553490595.0,286047001.2,N
1553490595.9,286047001.2,N
1553490615.7,286047000.2,N
1553490635.6,286047000.5,N
1553490655.4,286046998.9,N
1553490675.3,286047000.9,N
1553490695.1,286047000.8,N
1553490696.0,286047000.8,N
1553490715.8,286046998.2,N
1553490735.7,286047002.3,N
1553490755.5,286047000.7,N
1553490775.3,286047002.8,N
1553490795.2,286047000.8,N
1553490815.0,286047000.9,N
1553490815.9,286047000.9,N
1553490835.8,286046998.2,N
1553490855.6,286046998.1,N
1553490875.4,286047000.2,N
1553490895.3,286047002.7,N
1553490915.1,286047000.8,N
1553490935.8,286047000.3,N
1553490955.7,286047001.0,N
1553490975.5,286046998.3,N
1553490995.4,286047002.7,N
1553491015.2,286046999.9,N
1553491035.0,286047001.2,N
1553491035.9,286047001.2,N
1553491055.8,286046999.6,N
1553491075.6,286046999.1,N
1553491095.4,286046998.7,N
1553491115.3,286046998.7,N
1553491135.1,286047000.8,N
1553491155.9,286046999.8,N
1553491175.7,286047000.3,N
1553491195.5,286047000.4,N
1553491215.4,286047001.6,N
1553491235.2,286047004.0,N
1553491255.0,286047002.0,N
1553491256.0,286047002.0,N
1553491275.8,286047000.1,N
1553491295.6,286046999.9,N
1553491315.5,286047001.9,N
1553491335.3,286047001.8,N
1553491355.1,286047002.7,N
1553491375.9,286047001.0,N
1553491395.7,286046998.8,N
1553491415.5,286046998.3,N
1553491435.4,286046998.1,N
1553491455.2,286046999.9,N
1553491475.1,286046998.4,N
1553491476.0,286046998.4,N
1553491495.8,286046999.4,N
1553491515.6,286046996.5,N
1553491535.5,286046998.6,N
1553491555.3,286046999.4,N
1553491575.1,286046996.5,N
1553491595.9,286046997.8,N
1553491615.8,286046997.9,N
1553491635.6,286046995.3,N
1553491655.5,286046995.1,N
1553491675.3,286046998.0,N
1553491695.2,286046995.1,N
1553491715.9,286046999.4,N
1553491735.7,286046996.9,N
1553491755.6,286046998.9,N
1553491775.4,286047000.2,N
1553491795.3,286047000.3,N
1553491815.1,286047000.4,N
1553491816.0,286047000.4,N
1553491835.8,286047002.4,N
1553491855.7,286046999.9,N
1553491875.5,286047000.7,N
1553491895.3,286046999.9,N
1553491915.2,286047000.4,N
1553491935.0,286047000.0,N
1553491935.9,286047000.0,N
1553491955.8,286046998.1,N
1553491975.6,286047002.3,N
1553491995.4,286047000.3,N
1553492015.3,286047002.2,N
1553492035.1,286046999.7,N
1553492055.9,286047003.5,N
1553492075.7,286047003.8,N
1553492095.5,286047000.3,N
1553492115.4,286047000.2,N
1553492135.2,286047001.1,N
1553492155.0,286047002.8,N
1553492155.9,286047002.8,N
1553492175.8,286047002.6,N
1553492195.6,286047000.0,N
1553492215.5,286047001.4,N
1553492235.3,286047000.6,N
1553492255.1,286047001.1,N
1553492275.9,286046999.2,N
1553492295.7,286046996.6,N
1553492315.6,286046997.1,N
1553492335.4,286046999.2,N
1553492355.2,286046998.4,N
1553492375.1,286047000.4,N
1553492376.0,286047000.4,N
1553492395.8,286046999.9,N
1553492415.7,286046999.7,N
1553492435.5,286046998.1,N
1553492455.3,286047001.1,N
1553492475.2,286047002.4,N
1553492495.0,286047003.4,N
1553492495.9,286047003.4,N
1553492515.7,286047004.3,N
1553492535.6,286047002.0,N
1553492555.4,286047002.6,N
1553492575.3,286047001.5,N
1553492595.1,286047000.3,N
1553492596.0,286047000.3,N
1553492615.8,286047001.0,N
1553492665.7,286047000.2,E
1553492675.6,286047001.6,N
1553492695.4,286047003.0,P
1553492715.3,286047001.4,N
1553492735.1,286047004.0,Y
1553492755.9,286047000.8,P
1553492775.7,286046998.2,P
1553492795.5,286046998.7,N
1553492815.4,286047001.0,N
1553492835.2,286047002.2,N
1553492855.0,286047000.4,N
1553492855.9,286047000.4,N
1553492875.8,286046998.7,N
1553492895.6,286046999.2,N
1553492915.5,286046997.2,N
1553492935.3,286046997.3,N
1553492955.1,286046995.8,N
1553492975.9,286046995.2,N
1553492995.7,286046999.5,N
1553493015.5,286046996.8,N
1553493035.4,286046999.0,N
1553493055.2,286046997.3,N
1553493075.1,286046997.6,N
1553493076.0,286046997.6,N
1553493095.8,286047001.2,N
1553493115.6,286047000.8,N
1553493135.5,286047001.2,N
1553493155.3,286046998.1,N
1553493175.1,286046999.7,N
1553493195.9,286047000.3,N
1553493215.7,286047000.9,N
1553493235.6,286046999.3,N
1553493255.4,286046998.3,N
1553493275.2,286047001.1,N
1553493295.1,286047000.9,N
1553493296.0,286047000.9,N
1553493315.8,286047000.9,N
1553493335.6,286046998.9,N
1553493355.5,286047002.5,N
1553493375.3,286047001.1,N
1553493395.2,286046996.5,N
1553493415.9,286046998.9,N
1553493435.7,286047000.1,N
1553493455.6,286046999.8,N
1553493475.4,286046999.7,N
1553493495.2,286047002.3,N
1553493515.1,286047001.5,N
1553493516.0,286047001.5,N
1553493535.8,286046999.7,N
1553493555.7,286047002.0,N
1553493575.5,286047000.6,N
1553493595.3,286046999.1,N
